"startDT [UTC]","vpos","CH4 [ppm]","stdev(CH4) [ppm]","CO2 [ppm]","stdev(CO2) [ppm]","H2O [ppm]","stdev(H2O)","p_LGR [torr]","T_LGR [C]","mt1_LGR [us]","mt2_LGR [us]","T_ECpre [C]","T_EC1 [C]","T_EC2 [C]","p_inlet [hPa]","p_in [hPa]","p_out [hPa]","T_inlet [C]","RH_inlet [%]","dwpt_inlet [C]","T_vent [C]","RH_vent [%]","dwpt_vent [C]","flow_vent [l min-1]","flow_inlet [l min-1]","dwpt_sample [C]","T_room [C]"
2012-06-08 00:00:00,0.0,,,,,,,,,,,0.88,-27.41,-19.65,-60,569,-930,26.3,11.2,-6.3,26.3,1.4,-30.2,5.73,2.34,-28.1,30.7
2012-06-08 00:01:00,0.0,,,,,,,,,,,0.93,-27.40,-17.82,-60,569,-930,26.3,11.3,-6.1,26.3,1.5,-29.9,5.73,2.35,-28.1,30.7
2012-06-08 00:02:00,0.0,,,,,,,,,,,0.96,-27.36,-16.06,-60,569,-930,26.3,11.0,-6.5,26.3,1.5,-30.0,5.73,2.34,-28.1,30.7
2012-06-08 00:03:00,0.0,,,,,,,,,,,0.89,-27.32,-14.40,-60,569,-930,26.4,11.6,-5.8,26.3,1.5,-30.1,5.73,2.34,-28.1,30.7
2012-06-08 00:04:00,0.0,,,,,,,,,,,0.80,-27.28,-12.83,-60,569,-931,26.4,11.3,-6.1,26.3,1.5,-30.2,5.73,2.33,-28.1,30.7
2012-06-08 00:05:00,0.0,,,,,,,,,,,0.85,-27.23,-11.33,-60,569,-930,26.4,11.7,-5.6,26.3,1.4,-30.3,5.73,2.33,-28.1,30.7
2012-06-08 00:06:00,0.0,,,,,,,,,,,0.91,-27.19,-9.91,-60,569,-931,26.4,10.9,-6.5,26.3,1.4,-30.3,5.73,2.34,-28.1,30.7
2012-06-08 00:07:00,0.0,,,,,,,,,,,0.94,-27.15,-8.57,-60,569,-930,26.4,11.2,-6.2,26.3,1.4,-30.5,5.73,2.35,-28.1,30.7
2012-06-08 00:08:00,0.0,,,,,,,,,,,0.96,-27.11,-7.30,-60,569,-930,26.4,11.3,-6.1,26.3,1.4,-30.6,5.73,2.34,-28.1,30.7
2012-06-08 00:09:00,0.0,,,,,,,,,,,0.88,-27.06,-6.08,-60,569,-931,26.4,11.4,-6.0,26.3,1.4,-30.7,5.73,2.34,-28.1,30.7
2012-06-08 00:10:00,0.0,,,,,,,,,,,0.83,-27.02,-4.93,-60,569,-930,26.4,11.6,-5.8,26.3,1.4,-30.7,5.73,2.34,-28.1,30.7
2012-06-08 00:11:00,0.0,,,,,,,,,,,0.85,-26.99,-3.83,-60,569,-931,26.4,11.6,-5.8,26.3,1.4,-30.9,5.73,2.33,-28.1,30.7
2012-06-08 00:12:00,0.0,,,,,,,,,,,0.90,-26.95,-2.78,-60,569,-930,26.4,11.5,-5.9,26.3,1.4,-30.9,5.73,2.33,-28.1,30.7
2012-06-08 00:13:00,0.0,1.8846,0.0008,399.62,0.17,2.5,9.0,138.08,30.08,24.63,36.34,0.94,-26.91,-1.79,-60,569,-931,26.4,11.3,-6.0,26.3,1.4,-30.9,5.73,2.33,-28.1,30.7
2012-06-08 00:14:00,0.0,1.8849,0.0008,399.53,0.18,5.6,13.4,138.08,30.08,24.63,36.35,0.96,-26.88,-0.84,-60,569,-930,26.4,11.3,-6.0,26.3,1.4,-30.9,5.73,2.34,-28.1,30.7
2012-06-08 00:15:00,0.0,1.8846,0.0008,399.60,0.24,6.3,14.3,138.07,30.08,24.64,36.35,0.96,-26.84,0.06,-60,569,-931,26.4,11.2,-6.2,26.3,1.4,-30.9,5.73,2.34,-28.1,30.7
2012-06-08 00:16:00,0.0,,,,,,,,,,,0.93,-26.81,0.91,-60,569,-930,26.4,11.1,-6.3,26.3,1.3,-30.9,5.73,2.34,-28.1,30.8
2012-06-08 00:17:00,0.0,,,,,,,,,,,0.88,-26.78,1.71,-60,569,-930,26.5,11.6,-5.7,26.4,1.3,-31.1,5.73,2.33,-28.1,30.8
2012-06-08 00:18:00,0.0,,,,,,,,,,,0.85,-26.75,2.46,-60,569,-930,26.4,11.2,-6.2,26.4,1.3,-31.1,5.73,2.32,-28.1,30.8
2012-06-08 00:19:00,0.0,,,,,,,,,,,0.90,-26.72,3.04,-60,569,-930,26.4,11.2,-6.2,26.4,1.3,-31.1,5.73,2.33,-28.0,30.8
2012-06-08 00:20:00,0.0,,,,,,,,,,,0.92,-26.70,3.33,-60,569,-931,26.5,11.4,-5.9,26.4,1.3,-31.0,5.73,2.34,-28.0,30.8
2012-06-08 00:21:00,0.0,,,,,,,,,,,0.94,-26.67,3.65,-60,569,-930,26.5,11.2,-6.2,26.4,1.3,-31.1,5.73,2.34,-28.0,30.9
2012-06-08 00:22:00,0.0,,,,,,,,,,,0.95,-26.64,4.14,-60,569,-931,26.5,11.3,-6.0,26.4,1.3,-31.0,5.73,2.34,-28.0,30.8
2012-06-08 00:23:00,0.0,,,,,,,,,,,0.96,-26.63,4.76,-60,569,-930,26.5,11.2,-6.2,26.4,1.3,-31.0,5.73,2.33,-28.0,30.8
2012-06-08 00:24:00,0.0,,,,,,,,,,,0.96,-26.61,5.39,-60,569,-931,26.5,11.6,-5.7,26.4,1.3,-31.1,5.73,2.32,-28.0,30.9
2012-06-08 00:25:00,0.0,,,,,,,,,,,0.94,-26.59,5.97,-60,570,-930,26.5,11.5,-5.8,26.4,1.3,-31.1,5.73,2.32,-28.0,30.9
2012-06-08 00:26:00,0.0,,,,,,,,,,,0.91,-26.57,6.53,-60,569,-930,26.5,12.1,-5.1,26.4,1.3,-31.3,5.73,2.34,-28.0,30.9
2012-06-08 00:27:00,0.0,,,,,,,,,,,0.86,-26.55,7.04,-60,569,-930,26.5,12.0,-5.2,26.4,1.3,-31.3,5.73,2.34,-28.0,30.9
2012-06-08 00:28:00,0.0,,,,,,,,,,,0.89,-26.53,7.54,-60,569,-930,26.5,11.6,-5.6,26.4,1.3,-31.3,5.73,2.34,-28.0,30.9
2012-06-08 00:29:00,0.0,,,,,,,,,,,0.90,-26.51,8.02,-60,569,-931,26.5,11.4,-5.9,26.4,1.3,-31.3,5.73,2.33,-28.0,30.9
2012-06-08 00:30:00,0.0,,,,,,,,,,,0.93,-26.49,8.47,-60,570,-930,26.5,11.6,-5.6,26.4,1.3,-31.3,5.73,2.32,-28.0,30.9
2012-06-08 00:31:00,0.0,,,,,,,,,,,0.94,-26.48,8.90,-60,570,-931,26.5,11.4,-5.9,26.4,1.3,-31.3,5.73,2.32,-28.0,30.9
2012-06-08 00:32:00,0.0,,,,,,,,,,,0.95,-26.46,9.32,-60,570,-930,26.5,11.6,-5.6,26.4,1.3,-31.3,5.73,2.33,-28.0,31.0
2012-06-08 00:33:00,0.0,,,,,,,,,,,0.96,-26.45,9.73,-60,570,-931,26.5,11.5,-5.7,26.4,1.3,-31.3,5.73,2.34,-28.0,31.0
2012-06-08 00:34:00,0.0,,,,,,,,,,,0.95,-26.43,10.12,-60,570,-930,26.5,11.1,-6.2,26.5,1.3,-31.3,5.73,2.34,-27.6,30.9
2012-06-08 00:35:00,0.0,,,,,,,,,,,0.95,-26.42,10.50,-60,570,-931,26.5,11.7,-5.5,26.5,1.3,-31.3,5.73,2.33,-27.5,31.0
2012-06-08 00:36:00,0.0,,,,,,,,,,,0.91,-26.41,10.88,-60,570,-930,26.5,11.7,-5.6,26.5,1.3,-31.3,5.73,2.32,-27.5,31.0
2012-06-08 00:37:00,0.0,,,,,,,,,,,0.89,-26.40,11.23,-60,570,-931,26.5,11.8,-5.4,26.5,1.3,-31.3,5.73,2.32,-27.5,31.0
2012-06-08 00:38:00,0.0,,,,,,,,,,,0.88,-26.38,11.58,-60,570,-930,26.5,11.8,-5.5,26.5,1.3,-31.2,5.73,2.33,-27.6,31.0
2012-06-08 00:39:00,0.0,,,,,,,,,,,0.92,-26.37,11.91,-60,570,-931,26.5,11.8,-5.5,26.5,1.3,-31.2,5.73,2.34,-27.6,31.0
2012-06-08 00:40:00,0.0,,,,,,,,,,,0.91,-26.36,12.23,-60,570,-931,26.5,11.8,-5.4,26.5,1.3,-31.3,5.73,2.34,-27.5,30.9
2012-06-08 00:41:00,0.0,,,,,,,,,,,0.94,-26.35,12.53,-60,570,-930,26.5,11.6,-5.7,26.5,1.3,-31.3,5.73,2.33,-27.6,31.0
2012-06-08 00:42:00,0.0,,,,,,,,,,,0.94,-26.33,12.82,-60,570,-931,26.6,11.7,-5.6,26.5,1.3,-31.3,5.73,2.32,-27.5,31.0
2012-06-08 00:43:00,0.0,,,,,,,,,,,0.95,-26.32,13.10,-60,570,-930,26.6,11.9,-5.3,26.5,1.3,-31.3,5.73,2.32,-27.5,31.0
2012-06-08 00:44:00,0.0,,,,,,,,,,,0.94,-26.31,13.37,-60,570,-931,26.6,12.2,-4.9,26.5,1.3,-31.3,5.73,2.33,-27.6,30.9
2012-06-08 00:45:00,0.0,,,,,,,,,,,0.95,-26.30,13.62,-60,570,-930,26.6,12.1,-5.1,26.5,1.3,-31.3,5.73,2.34,-27.5,30.9
2012-06-08 00:46:00,0.0,,,,,,,,,,,0.96,-26.29,13.88,-60,570,-931,26.6,11.7,-5.4,26.5,1.3,-31.2,5.73,2.34,-27.6,30.9
2012-06-08 00:47:00,0.0,,,,,,,,,,,0.96,-26.29,14.11,-60,570,-930,26.6,11.9,-5.3,26.5,1.3,-31.3,5.73,2.34,-27.6,30.9
2012-06-08 00:48:00,0.0,,,,,,,,,,,0.93,-26.27,14.33,-60,570,-931,26.6,12.0,-5.1,26.5,1.3,-31.3,5.73,2.32,-27.6,30.9
2012-06-08 00:49:00,0.0,,,,,,,,,,,0.92,-26.27,14.55,-60,570,-930,26.6,12.3,-4.8,26.5,1.3,-31.2,5.73,2.32,-27.6,30.9
2012-06-08 00:50:00,0.0,,,,,,,,,,,0.91,-26.26,14.76,-60,570,-931,26.6,11.3,-6.0,26.5,1.3,-31.3,5.73,2.32,-27.6,30.9
2012-06-08 00:51:00,0.0,,,,,,,,,,,0.91,-26.26,14.95,-60,570,-930,26.6,11.6,-5.6,26.5,1.3,-31.3,5.73,2.33,-27.6,30.9
2012-06-08 00:52:00,0.0,,,,,,,,,,,0.93,-26.25,15.14,-60,570,-931,26.6,11.6,-5.6,26.5,1.3,-31.2,5.73,2.34,-27.6,30.9
2012-06-08 00:53:00,0.0,,,,,,,,,,,0.93,-26.24,15.32,-60,570,-930,26.6,11.6,-5.6,26.5,1.3,-31.2,5.73,2.34,-27.6,30.9
2012-06-08 00:54:00,0.0,,,,,,,,,,,0.92,-26.24,15.50,-60,570,-930,26.6,11.6,-5.6,26.5,1.3,-31.2,5.73,2.33,-27.6,30.9
2012-06-08 00:55:00,0.0,,,,,,,,,,,0.93,-26.23,15.66,-60,570,-931,26.6,11.7,-5.4,26.5,1.3,-31.2,5.73,2.31,-27.6,31.0
2012-06-08 00:56:00,0.0,,,,,,,,,,,0.93,-26.23,15.82,-60,570,-930,26.6,11.7,-5.4,26.5,1.3,-31.2,5.73,2.32,-27.6,31.0
2012-06-08 00:57:00,0.0,,,,,,,,,,,0.94,-26.22,15.97,-60,570,-931,26.6,11.8,-5.4,26.5,1.3,-31.2,5.73,2.33,-27.6,30.9
2012-06-08 00:58:00,0.0,,,,,,,,,,,0.95,-26.22,16.11,-60,570,-930,26.6,11.8,-5.3,26.5,1.3,-31.2,5.73,2.35,-27.6,30.9
2012-06-08 00:59:00,0.0,,,,,,,,,,,0.96,-26.21,16.25,-60,570,-931,26.6,11.6,-5.6,26.5,1.3,-31.3,5.73,2.34,-27.6,31.0
2012-06-08 01:00:00,0.0,,,,,,,,,,,0.96,-26.21,16.38,-60,570,-930,26.6,11.2,-6.1,26.5,1.3,-31.2,5.73,2.33,-27.6,31.0
2012-06-08 01:01:00,0.0,,,,,,,,,,,0.96,-26.21,16.51,-60,570,-931,26.6,11.5,-5.8,26.5,1.3,-31.3,5.73,2.32,-27.6,31.0
2012-06-08 01:02:00,0.0,,,,,,,,,,,0.96,-26.21,16.62,-60,570,-930,26.6,11.8,-5.4,26.5,1.3,-31.2,5.73,2.32,-27.6,31.0
2012-06-08 01:03:00,0.0,,,,,,,,,,,0.95,-26.20,16.75,-60,570,-931,26.6,11.8,-5.4,26.5,1.3,-31.3,5.73,2.33,-27.6,31.0
2012-06-08 01:04:00,0.0,,,,,,,,,,,0.95,-26.21,16.85,-60,570,-930,26.6,11.3,-5.9,26.5,1.3,-31.2,5.73,2.34,-27.6,31.0
2012-06-08 01:05:00,0.0,,,,,,,,,,,0.93,-26.20,16.95,-60,570,-931,26.6,11.8,-5.4,26.6,1.3,-31.2,5.73,2.34,-27.6,31.0
2012-06-08 01:06:00,0.0,,,,,,,,,,,0.91,-26.20,17.06,-60,570,-930,26.6,12.4,-4.7,26.5,1.3,-31.3,5.73,2.33,-27.6,31.0
2012-06-08 01:07:00,0.0,,,,,,,,,,,0.92,-26.20,17.15,-60,570,-931,26.6,11.8,-5.4,26.5,1.3,-31.2,5.73,2.32,-27.6,31.0
2012-06-08 01:08:00,0.0,,,,,,,,,,,0.92,-26.20,17.24,-60,570,-930,26.6,11.6,-5.6,26.5,1.3,-31.2,5.73,2.32,-27.6,31.0
2012-06-08 01:09:00,0.0,,,,,,,,,,,0.90,-26.19,17.33,-60,570,-931,26.6,12.0,-5.1,26.5,1.3,-31.2,5.73,2.33,-27.6,31.0
2012-06-08 01:10:00,0.0,,,,,,,,,,,0.91,-26.19,17.42,-60,570,-930,26.6,11.7,-5.5,26.6,1.3,-31.2,5.73,2.34,-27.6,31.0
2012-06-08 01:11:00,0.0,,,,,,,,,,,0.93,-26.19,17.50,-60,570,-931,26.7,11.1,-6.2,26.5,1.3,-31.3,5.73,2.34,-27.6,31.0
2012-06-08 01:12:00,0.0,,,,,,,,,,,0.94,-26.19,17.58,-60,570,-931,26.6,10.8,-6.5,26.5,1.3,-31.2,5.73,2.32,-27.6,31.1
2012-06-08 01:13:00,0.0,1.8846,0.0008,399.62,0.17,2.5,9.0,138.08,30.08,24.63,36.34,0.94,-26.19,17.65,-60,570,-931,26.7,10.5,-6.8,26.5,1.3,-31.2,5.73,2.32,-27.6,31.1
2012-06-08 01:14:00,0.0,1.8849,0.0008,399.53,0.18,5.6,13.4,138.08,30.08,24.63,36.35,0.94,-26.19,17.71,-60,570,-931,26.7,11.1,-6.1,26.5,1.3,-31.2,5.73,2.32,-27.6,31.1
2012-06-08 01:15:00,0.0,1.8846,0.0008,399.60,0.24,6.3,14.3,138.07,30.08,24.64,36.35,0.95,-26.20,17.79,-60,570,-931,26.7,11.2,-6.1,26.5,1.3,-31.2,5.73,2.33,-27.6,31.1
2012-06-08 01:16:00,0.0,,,,,,,,,,,0.95,-26.19,17.85,-60,570,-931,26.7,11.2,-6.0,26.6,1.3,-31.2,5.73,2.34,-27.6,31.0
2012-06-08 01:17:00,0.0,,,,,,,,,,,0.96,-26.20,17.92,-60,570,-931,26.6,11.7,-5.5,26.5,1.3,-31.2,5.73,2.34,-27.6,31.1
2012-06-08 01:18:00,0.0,,,,,,,,,,,0.96,-26.20,17.97,-60,570,-931,26.6,11.8,-5.3,26.5,1.3,-31.2,5.73,2.33,-27.6,31.1
2012-06-08 01:19:00,0.0,,,,,,,,,,,0.95,-26.19,18.03,-60,570,-930,26.7,11.3,-5.9,26.5,1.3,-31.2,5.73,2.32,-27.6,31.0
2012-06-08 01:20:00,0.0,,,,,,,,,,,0.96,-26.20,18.09,-60,570,-931,26.7,11.4,-5.7,26.6,1.3,-31.2,5.73,2.33,-27.6,31.0
2012-06-08 01:21:00,0.0,,,,,,,,,,,0.93,-26.19,18.14,-60,570,-930,26.7,11.1,-6.1,26.5,1.3,-31.2,5.73,2.33,-27.6,31.0
2012-06-08 01:22:00,0.0,,,,,,,,,,,0.92,-26.20,18.19,-60,570,-931,26.6,11.5,-5.7,26.6,1.3,-31.2,5.73,2.34,-27.6,31.0
2012-06-08 01:23:00,0.0,,,,,,,,,,,0.92,-26.20,18.23,-60,570,-930,26.7,11.7,-5.4,26.6,1.3,-31.3,5.73,2.34,-27.6,31.0
2012-06-08 01:24:00,0.0,,,,,,,,,,,0.91,-26.20,18.28,-60,570,-931,26.7,11.4,-5.8,26.6,1.3,-31.3,5.73,2.34,-27.6,31.0
2012-06-08 01:25:00,0.0,,,,,,,,,,,0.93,-26.20,18.32,-60,570,-930,26.7,11.4,-5.8,26.6,1.3,-31.4,5.73,2.32,-27.6,31.0
2012-06-08 01:26:00,0.0,,,,,,,,,,,0.92,-26.20,18.37,-60,570,-931,26.7,12.2,-4.9,26.6,1.3,-31.2,5.73,2.32,-27.6,31.0
2012-06-08 01:27:00,0.0,,,,,,,,,,,0.92,-26.19,18.41,-60,570,-930,26.7,11.5,-5.6,26.6,1.3,-31.3,5.73,2.32,-27.6,31.0
2012-06-08 01:28:00,0.0,,,,,,,,,,,0.94,-26.19,18.44,-60,570,-931,26.7,11.8,-5.3,26.6,1.3,-31.4,5.73,2.33,-27.6,31.0
2012-06-08 01:29:00,0.0,,,,,,,,,,,0.95,-26.19,18.49,-60,570,-930,26.7,12.0,-5.1,26.6,1.3,-31.4,5.73,2.34,-27.6,31.0
2012-06-08 01:30:00,0.0,,,,,,,,,,,0.93,-26.21,18.51,-60,570,-931,26.7,11.9,-5.2,26.6,1.3,-31.5,5.73,2.34,-27.6,31.0
2012-06-08 01:31:00,0.0,,,,,,,,,,,0.94,-26.21,18.54,-60,570,-930,26.7,11.8,-5.3,26.6,1.3,-31.4,5.73,2.33,-27.6,31.0
2012-06-08 01:32:00,0.0,,,,,,,,,,,0.94,-26.20,18.58,-60,570,-931,26.7,11.6,-5.6,26.6,1.3,-31.4,5.73,2.32,-27.6,31.0
2012-06-08 01:33:00,0.0,,,,,,,,,,,0.95,-26.19,18.60,-60,570,-930,26.7,11.6,-5.5,26.6,1.3,-31.4,5.73,2.32,-27.6,31.1
2012-06-08 01:34:00,0.0,,,,,,,,,,,0.96,-26.20,18.64,-60,570,-931,26.7,11.8,-5.3,26.6,1.3,-31.4,5.73,2.33,-27.6,31.0
2012-06-08 01:35:00,0.0,,,,,,,,,,,0.95,-26.18,18.66,-60,570,-931,26.7,11.5,-5.6,26.6,1.3,-31.4,5.73,2.34,-27.6,31.1
2012-06-08 01:36:00,0.0,,,,,,,,,,,0.96,-26.20,18.69,-60,570,-931,26.7,11.6,-5.5,26.6,1.3,-31.4,5.73,2.34,-27.6,31.1
2012-06-08 01:37:00,0.0,,,,,,,,,,,0.95,-26.21,18.72,-60,571,-931,26.7,11.3,-5.8,26.6,1.3,-31.4,5.73,2.33,-27.6,31.0
2012-06-08 01:38:00,0.0,,,,,,,,,,,0.95,-26.20,18.75,-60,571,-931,26.7,11.1,-6.1,26.6,1.3,-31.4,5.73,2.32,-27.6,31.1
2012-06-08 01:39:00,0.0,,,,,,,,,,,0.95,-26.20,18.78,-60,570,-931,26.7,11.6,-5.5,26.6,1.3,-31.4,5.73,2.32,-27.6,31.1
2012-06-08 01:40:00,0.0,,,,,,,,,,,0.95,-26.20,18.80,-60,571,-930,26.7,11.1,-6.1,26.6,1.3,-31.4,5.73,2.33,-27.6,31.1
2012-06-08 01:41:00,0.0,,,,,,,,,,,0.95,-26.20,18.82,-60,570,-931,26.7,11.2,-6.0,26.6,1.3,-31.4,5.73,2.34,-27.6,31.1
2012-06-08 01:42:00,0.0,,,,,,,,,,,0.94,-26.20,18.84,-60,571,-930,26.7,11.2,-5.9,26.7,1.3,-31.4,5.73,2.34,-27.6,31.1
2012-06-08 01:43:00,0.0,,,,,,,,,,,0.92,-26.20,18.85,-60,571,-931,26.7,11.7,-5.4,26.6,1.3,-31.4,5.73,2.33,-27.6,31.1
2012-06-08 01:44:00,0.0,,,,,,,,,,,0.92,-26.20,18.88,-60,571,-930,26.7,12.1,-4.9,26.6,1.3,-31.4,5.73,2.32,-27.6,31.1
2012-06-08 01:45:00,0.0,,,,,,,,,,,0.92,-26.20,18.89,-60,570,-931,26.7,11.6,-5.5,26.6,1.3,-31.4,5.73,2.32,-27.6,31.1
2012-06-08 01:46:00,0.0,,,,,,,,,,,0.94,-26.20,18.91,-60,571,-930,26.7,11.5,-5.6,26.7,1.3,-31.4,5.73,2.32,-27.6,31.1
2012-06-08 01:47:00,0.0,,,,,,,,,,,0.92,-26.20,18.93,-60,570,-931,26.7,11.8,-5.3,26.7,1.3,-31.4,5.73,2.34,-27.6,31.1
2012-06-08 01:48:00,0.0,,,,,,,,,,,0.94,-26.20,18.95,-60,571,-930,26.7,11.8,-5.3,26.6,1.3,-31.4,5.73,2.34,-27.6,31.1
2012-06-08 01:49:00,0.0,,,,,,,,,,,0.93,-26.20,18.96,-60,571,-931,26.7,11.6,-5.5,26.7,1.3,-31.4,5.73,2.34,-27.6,31.1
2012-06-08 01:50:00,0.0,,,,,,,,,,,0.94,-26.20,18.98,-60,570,-931,26.7,10.8,-6.4,26.7,1.3,-31.4,5.73,2.32,-27.6,31.1
2012-06-08 01:51:00,0.0,,,,,,,,,,,0.95,-26.20,18.99,-60,570,-931,26.8,10.6,-6.7,26.7,1.3,-31.4,5.73,2.31,-27.6,31.1
2012-06-08 01:52:00,0.0,,,,,,,,,,,0.94,-26.21,19.01,-60,571,-931,26.7,11.0,-6.2,26.6,1.3,-31.4,5.73,2.32,-27.6,31.1
2012-06-08 01:53:00,0.0,,,,,,,,,,,0.95,-26.21,19.02,-60,571,-931,26.8,10.7,-6.5,26.7,1.3,-31.3,5.73,2.33,-27.6,31.1
2012-06-08 01:54:00,0.0,,,,,,,,,,,1.10,-26.21,18.18,-60,571,-931,26.8,11.0,-6.2,26.7,1.3,-31.4,5.73,2.34,-27.6,31.1
2012-06-08 01:55:00,0.0,,,,,,,,,,,1.13,-26.20,16.05,-60,571,-931,26.8,11.0,-6.2,26.7,1.3,-31.4,5.73,2.34,-27.6,31.1
2012-06-08 01:56:00,0.0,,,,,,,,,,,0.97,-26.20,13.66,-60,571,-931,26.8,11.3,-5.8,26.7,1.3,-31.4,5.73,2.33,-27.6,31.1
2012-06-08 01:57:00,0.0,,,,,,,,,,,1.05,-26.21,11.28,-60,571,-931,26.8,11.2,-6.0,26.7,1.3,-31.4,5.73,2.32,-27.6,31.1
2012-06-08 01:58:00,0.0,,,,,,,,,,,1.11,-26.21,8.96,-60,571,-931,26.8,10.9,-6.3,26.7,1.3,-31.4,5.73,2.32,-27.6,31.1
2012-06-08 01:59:00,0.0,,,,,,,,,,,1.01,-26.22,6.75,-60,571,-931,26.8,10.9,-6.3,26.7,1.3,-31.4,5.73,2.32,-27.6,31.1
2012-06-08 02:00:00,1.0,,,,,,,,,,,1.04,-26.22,4.53,-60,583,-931,26.8,11.2,-5.9,26.7,1.3,-31.4,5.73,2.32,-27.6,31.0
2012-06-08 02:01:00,1.0,,,,,,,,,,,1.12,-26.23,2.61,-60,582,-931,26.8,11.0,-6.2,26.7,1.3,-31.4,5.73,2.34,-27.6,31.0
2012-06-08 02:02:00,1.0,,,,,,,,,,,1.03,-26.23,0.71,-60,582,-931,26.8,11.0,-6.2,26.7,1.3,-31.4,5.73,2.34,-27.6,30.9
2012-06-08 02:03:00,1.0,,,,,,,,,,,1.00,-26.23,-1.09,-60,582,-931,26.8,11.7,-5.3,26.7,1.3,-31.4,5.73,2.33,-27.6,30.9
2012-06-08 02:04:00,1.0,,,,,,,,,,,1.09,-26.23,-2.75,-60,582,-931,26.7,11.8,-5.3,26.7,1.3,-31.4,5.73,2.33,-27.6,30.9
2012-06-08 02:05:00,0.0,,,,,,,,,,,1.04,-26.24,-4.11,-60,569,-931,26.7,11.4,-5.8,26.7,1.2,-31.6,5.73,2.35,-27.6,30.8
2012-06-08 02:06:00,0.0,,,,,,,,,,,0.97,-26.24,-5.58,-60,569,-931,26.8,10.9,-6.3,26.7,1.2,-31.6,5.73,2.34,-27.7,30.8
2012-06-08 02:07:00,0.0,,,,,,,,,,,1.04,-26.25,-7.03,-60,569,-931,26.8,11.1,-6.0,26.7,1.2,-31.6,5.73,2.34,-27.7,30.8
2012-06-08 02:08:00,0.0,,,,,,,,,,,1.09,-26.26,-8.38,-60,570,-931,26.7,11.2,-5.9,26.7,1.2,-31.6,5.73,2.34,-27.7,30.8
2012-06-08 02:09:00,0.0,,,,,,,,,,,1.02,-26.27,-9.51,-60,570,-931,26.7,11.2,-5.9,26.6,1.2,-31.6,5.73,2.33,-27.7,30.8
2012-06-08 02:10:00,0.0,,,,,,,,,,,0.98,-26.27,-10.60,-60,570,-931,26.8,11.7,-5.3,26.7,1.2,-31.6,5.73,2.34,-27.8,30.8
2012-06-08 02:11:00,0.0,,,,,,,,,,,1.04,-26.29,-11.72,-60,570,-931,26.8,11.4,-5.7,26.7,1.2,-31.6,5.73,2.33,-27.8,30.8
2012-06-08 02:12:00,0.0,,,,,,,,,,,1.07,-26.30,-12.72,-60,570,-931,26.8,11.5,-5.6,26.7,1.2,-31.6,5.73,2.34,-27.8,30.8
2012-06-08 02:13:00,0.0,1.8846,0.0008,399.62,0.17,2.5,9.0,138.08,30.08,24.63,36.34,1.03,-26.31,-13.73,-60,570,-931,26.8,11.1,-6.0,26.7,1.2,-31.6,5.73,2.34,-27.8,30.8
2012-06-08 02:14:00,0.0,1.8849,0.0008,399.53,0.18,5.6,13.4,138.08,30.08,24.63,36.35,0.98,-26.32,-14.67,-60,570,-931,26.8,11.6,-5.5,26.6,1.2,-31.6,5.73,2.34,-27.8,30.8
2012-06-08 02:15:00,0.0,1.8846,0.0008,399.60,0.24,6.3,14.3,138.07,30.08,24.64,36.35,1.03,-26.33,-15.55,-60,570,-931,26.8,11.4,-5.7,26.7,1.2,-31.6,5.73,2.35,-27.9,30.8
2012-06-08 02:16:00,0.0,,,,,,,,,,,1.08,-26.34,-16.31,-60,570,-931,26.8,11.7,-5.4,26.7,1.2,-31.6,5.73,2.35,-27.9,30.8
2012-06-08 02:17:00,0.0,,,,,,,,,,,1.01,-26.35,-17.07,-60,570,-931,26.8,11.1,-6.0,26.7,1.2,-31.6,5.73,2.35,-27.9,30.8
2012-06-08 02:18:00,0.0,,,,,,,,,,,0.97,-26.37,-17.85,-60,570,-931,26.8,10.9,-6.2,26.7,1.2,-31.6,5.73,2.34,-27.9,30.8
2012-06-08 02:19:00,0.0,,,,,,,,,,,1.01,-26.39,-18.57,-60,570,-931,26.7,11.1,-6.0,26.7,1.2,-31.6,5.73,2.35,-27.9,30.8
2012-06-08 02:20:00,0.0,,,,,,,,,,,1.06,-26.39,-19.25,-60,570,-931,26.8,11.6,-5.4,26.6,1.2,-31.6,5.73,2.35,-27.9,30.8
2012-06-08 02:21:00,0.0,,,,,,,,,,,1.05,-26.41,-19.90,-60,570,-931,26.7,11.1,-6.0,26.7,1.2,-31.6,5.73,2.35,-27.9,30.8
2012-06-08 02:22:00,0.0,,,,,,,,,,,0.97,-26.42,-20.49,-60,570,-931,26.8,11.1,-6.1,26.7,1.2,-31.5,5.73,2.35,-27.9,30.8
2012-06-08 02:23:00,0.0,,,,,,,,,,,0.99,-26.43,-21.06,-60,570,-931,26.8,10.9,-6.3,26.7,1.2,-31.6,5.73,2.34,-27.9,30.7
2012-06-08 02:24:00,0.0,,,,,,,,,,,1.05,-26.45,-21.58,-60,570,-931,26.7,11.3,-5.8,26.7,1.2,-31.6,5.73,2.34,-27.9,30.7
2012-06-08 02:25:00,0.0,,,,,,,,,,,1.07,-26.46,-22.09,-60,570,-930,26.7,11.5,-5.6,26.7,1.2,-31.7,5.73,2.34,-27.9,30.7
2012-06-08 02:26:00,0.0,,,,,,,,,,,0.98,-26.47,-22.55,-60,570,-931,26.7,11.2,-6.0,26.7,1.2,-31.8,5.73,2.34,-27.9,30.6
2012-06-08 02:27:00,0.0,,,,,,,,,,,0.98,-26.49,-22.99,-60,570,-931,26.7,11.0,-6.2,26.6,1.2,-31.8,5.73,2.34,-28.0,30.7
2012-06-08 02:28:00,0.0,,,,,,,,,,,1.03,-26.50,-23.41,-60,570,-931,26.7,11.3,-5.8,26.6,1.2,-31.9,5.73,2.34,-27.9,30.7
2012-06-08 02:29:00,0.0,,,,,,,,,,,1.06,-26.51,-23.80,-60,570,-931,26.7,11.0,-6.1,26.7,1.2,-31.8,5.73,2.34,-28.0,30.7
2012-06-08 02:30:00,0.0,,,,,,,,,,,1.03,-26.52,-24.17,-60,570,-931,26.7,11.0,-6.2,26.6,1.2,-31.8,5.73,2.34,-27.9,30.7
2012-06-08 02:31:00,0.0,,,,,,,,,,,0.97,-26.53,-24.51,-60,570,-931,26.7,11.0,-6.2,26.6,1.2,-31.9,5.73,2.35,-27.9,30.7
2012-06-08 02:32:00,0.0,,,,,,,,,,,0.99,-26.55,-24.84,-60,570,-930,26.7,10.5,-6.8,26.6,1.2,-31.9,5.73,2.34,-28.0,30.7
2012-06-08 02:33:00,0.0,,,,,,,,,,,1.07,-26.56,-25.14,-60,570,-931,26.7,10.6,-6.7,26.6,1.2,-31.8,5.73,2.34,-28.0,30.6
2012-06-08 02:34:00,0.0,,,,,,,,,,,1.05,-26.57,-25.41,-60,570,-931,26.7,11.0,-6.2,26.6,1.2,-31.9,5.73,2.35,-28.1,30.6
2012-06-08 02:35:00,0.0,,,,,,,,,,,0.98,-26.59,-25.68,-60,570,-931,26.7,11.4,-5.8,26.6,1.2,-31.8,5.73,2.35,-28.0,30.6
2012-06-08 02:36:00,0.0,,,,,,,,,,,0.97,-26.60,-25.94,-60,570,-931,26.7,11.7,-5.4,26.6,1.2,-31.8,5.73,2.35,-28.1,30.6
2012-06-08 02:37:00,0.0,,,,,,,,,,,1.02,-26.61,-26.18,-60,570,-931,26.7,11.5,-5.6,26.6,1.2,-31.9,5.73,2.34,-28.1,30.6
2012-06-08 02:38:00,0.0,,,,,,,,,,,1.04,-26.62,-26.41,-60,570,-931,26.7,11.1,-6.1,26.6,1.2,-31.8,5.73,2.35,-28.1,30.6
2012-06-08 02:39:00,0.0,,,,,,,,,,,1.04,-26.62,-26.62,-60,570,-930,26.7,10.8,-6.4,26.6,1.2,-31.9,5.73,2.35,-28.1,30.6
2012-06-08 02:40:00,0.0,,,,,,,,,,,0.97,-26.63,-26.41,-60,570,-931,26.7,11.2,-6.0,26.6,1.2,-31.9,5.73,2.35,-28.1,30.6
2012-06-08 02:41:00,0.0,,,,,,,,,,,0.98,-26.64,-26.42,-60,570,-931,26.7,11.1,-6.1,26.6,1.2,-31.9,5.73,2.35,-28.1,30.6
2012-06-08 02:42:00,0.0,,,,,,,,,,,0.97,-26.65,-26.59,-60,570,-931,26.7,11.7,-5.4,26.6,1.2,-31.9,5.73,2.35,-28.1,30.6
2012-06-08 02:43:00,0.0,,,,,,,,,,,0.94,-26.66,-26.56,-60,570,-931,26.7,11.8,-5.3,26.6,1.2,-31.8,5.73,2.35,-28.1,30.7
2012-06-08 02:44:00,0.0,,,,,,,,,,,1.05,-26.67,-26.40,-61,570,-930,26.7,11.8,-5.3,26.6,1.2,-31.9,5.73,2.35,-28.1,30.7
2012-06-08 02:45:00,0.0,,,,,,,,,,,1.08,-26.67,-26.54,-60,570,-931,26.7,11.7,-5.4,26.6,1.2,-31.9,5.73,2.35,-28.1,30.7
2012-06-08 02:46:00,0.0,,,,,,,,,,,0.95,-26.68,-26.68,-60,570,-931,26.7,11.2,-5.9,26.6,1.2,-31.9,5.73,2.35,-28.1,30.6
2012-06-08 02:47:00,0.0,,,,,,,,,,,0.98,-26.69,-26.42,-60,570,-931,26.7,10.6,-6.7,26.6,1.2,-32.1,5.73,2.34,-28.1,30.7
2012-06-08 02:48:00,0.0,,,,,,,,,,,0.98,-26.70,-26.50,-60,570,-931,26.7,11.0,-6.3,26.6,1.2,-32.1,5.73,2.34,-28.0,30.7
2012-06-08 02:49:00,0.0,,,,,,,,,,,1.02,-26.71,-26.67,-60,570,-930,26.7,11.1,-6.1,26.6,1.2,-32.0,5.73,2.34,-28.1,30.6
2012-06-08 02:50:00,0.0,,,,,,,,,,,0.95,-26.71,-26.56,-60,570,-931,26.7,11.2,-6.0,26.6,1.2,-32.1,5.73,2.34,-28.1,30.6
2012-06-08 02:51:00,0.0,,,,,,,,,,,1.06,-26.72,-26.47,-60,570,-931,26.7,11.3,-5.8,26.6,1.2,-32.1,5.73,2.34,-28.0,30.7
2012-06-08 02:52:00,0.0,,,,,,,,,,,0.96,-26.69,-26.62,-60,570,-931,26.7,11.5,-5.6,26.6,1.2,-31.9,5.73,2.34,-28.0,30.7
2012-06-08 02:53:00,0.0,,,,,,,,,,,0.94,-25.72,-26.80,-60,570,-931,26.7,10.6,-6.7,26.6,1.2,-32.0,5.73,2.34,-28.0,30.7
2012-06-08 02:54:00,0.0,,,,,,,,,,,0.86,-23.88,-26.95,-60,570,-930,26.7,10.8,-6.5,26.6,1.3,-31.3,5.73,2.34,-28.0,30.6
2012-06-08 02:55:00,0.0,,,,,,,,,,,0.86,-21.94,-27.05,-60,570,-931,26.7,11.2,-6.0,26.6,1.4,-30.6,5.73,2.34,-28.0,30.6
2012-06-08 02:56:00,0.0,,,,,,,,,,,0.88,-20.04,-27.11,-60,570,-931,26.7,10.9,-6.4,26.6,1.4,-30.2,5.73,2.34,-28.1,30.7
2012-06-08 02:57:00,0.0,,,,,,,,,,,0.92,-18.21,-27.15,-60,570,-930,26.7,11.1,-6.1,26.6,1.4,-30.1,5.73,2.35,-28.0,30.6
2012-06-08 02:58:00,0.0,,,,,,,,,,,0.93,-16.48,-27.17,-60,570,-931,26.7,11.0,-6.2,26.6,1.4,-30.1,5.73,2.34,-28.0,30.7
2012-06-08 02:59:00,0.0,,,,,,,,,,,0.95,-14.82,-27.19,-60,570,-931,26.7,11.1,-6.1,26.7,1.4,-30.1,5.73,2.34,-28.0,30.7
2012-06-08 03:00:00,0.0,,,,,,,,,,,0.93,-13.26,-27.20,-60,570,-930,26.7,11.4,-5.8,26.7,1.4,-30.3,5.73,2.35,-28.0,30.7
2012-06-08 03:01:00,0.0,,,,,,,,,,,0.88,-11.77,-27.21,-60,570,-931,26.7,11.3,-5.9,26.7,1.4,-30.3,5.73,2.35,-28.0,30.8
2012-06-08 03:02:00,0.0,,,,,,,,,,,0.86,-10.36,-27.21,-60,570,-931,26.7,10.8,-6.4,26.7,1.4,-30.5,5.73,2.34,-28.0,30.8
2012-06-08 03:03:00,0.0,,,,,,,,,,,0.89,-9.01,-27.21,-60,570,-930,26.8,11.0,-6.2,26.7,1.4,-30.5,5.73,2.34,-28.0,30.9
2012-06-08 03:04:00,0.0,,,,,,,,,,,0.91,-7.73,-27.21,-60,570,-931,26.8,10.9,-6.2,26.7,1.4,-30.7,5.73,2.34,-28.0,30.9
2012-06-08 03:05:00,0.0,,,,,,,,,,,0.93,-6.51,-27.22,-60,571,-931,26.8,11.5,-5.6,26.7,1.4,-30.7,5.73,2.33,-27.9,30.9
2012-06-08 03:06:00,0.0,,,,,,,,,,,0.93,-5.34,-27.22,-60,570,-931,26.8,11.5,-5.6,26.7,1.3,-30.9,5.73,2.34,-27.9,30.9
2012-06-08 03:07:00,0.0,,,,,,,,,,,0.95,-4.23,-27.21,-60,571,-931,26.8,11.2,-5.9,26.7,1.3,-30.9,5.73,2.34,-27.9,31.0
2012-06-08 03:08:00,0.0,,,,,,,,,,,0.97,-3.18,-27.21,-60,571,-931,26.8,11.0,-6.1,26.7,1.3,-30.9,5.73,2.35,-27.9,31.1
2012-06-08 03:09:00,0.0,,,,,,,,,,,0.95,-2.19,-27.20,-60,571,-931,26.8,12.6,-4.4,26.8,1.3,-31.1,5.73,2.35,-27.9,31.1
2012-06-08 03:10:00,0.0,,,,,,,,,,,0.93,-1.24,-27.19,-60,571,-930,26.8,12.9,-4.0,26.8,1.3,-31.1,5.73,2.34,-27.9,31.0
2012-06-08 03:11:00,0.0,,,,,,,,,,,0.91,-0.33,-27.18,-60,571,-931,26.9,12.8,-4.1,26.7,1.3,-31.1,5.73,2.34,-27.9,31.0
2012-06-08 03:12:00,0.0,,,,,,,,,,,0.89,0.52,-27.17,-60,571,-931,26.9,12.6,-4.3,26.8,1.3,-31.3,5.73,2.34,-27.8,31.0
2012-06-08 03:13:00,0.0,1.8846,0.0008,399.62,0.17,2.5,9.0,138.08,30.08,24.63,36.34,0.91,1.33,-27.15,-60,571,-930,26.9,12.5,-4.4,26.8,1.3,-31.3,5.73,2.33,-27.9,31.0
2012-06-08 03:14:00,0.0,1.8849,0.0008,399.53,0.18,5.6,13.4,138.08,30.08,24.63,36.35,0.93,2.09,-27.15,-60,571,-931,26.9,12.2,-4.7,26.8,1.3,-31.3,5.73,2.33,-27.8,31.1
2012-06-08 03:15:00,0.0,1.8846,0.0008,399.60,0.24,6.3,14.3,138.07,30.08,24.64,36.35,0.92,2.75,-27.13,-61,571,-931,26.9,12.3,-4.6,26.8,1.3,-31.3,5.73,2.34,-27.8,31.1
2012-06-08 03:16:00,0.0,,,,,,,,,,,0.93,3.18,-27.12,-60,571,-931,26.9,12.9,-4.0,26.8,1.3,-31.3,5.73,2.34,-27.8,31.1